"Period start","avg(HW err(1)/warn(2) (#))","avg(Visibility (m))","avg(Weather code (#))","avg(Precip intensity (mm/h))","min(HW err(1)/warn(2) (#))","max(HW err(1)/warn(2) (#))","std(HW err(1)/warn(2) (#))","med(HW err(1)/warn(2) (#))","min(Visibility (m))","max(Visibility (m))","std(Visibility (m))","med(Visibility (m))","min(Weather code (#))","max(Weather code (#))","std(Weather code (#))","med(Weather code (#))","min(Precip intensity (mm/h))","max(Precip intensity (mm/h))","std(Precip intensity (mm/h))","med(Precip intensity (mm/h))"
2017-06-28 00:00:00,2,46005,0,0.00,2,2,0,2,40471,50000,3710,45879,0,0,0,0,0.00,0.00,0.00,0.00
2017-06-28 00:10:00,2,44830,0,0.00,2,2,0,2,37255,50000,4626,44540,0,0,0,0,0.00,0.00,0.00,0.00
2017-06-28 00:20:00,2,40828,0,0.00,2,2,0,2,29558,50000,7144,41330,0,0,0,0,0.00,0.00,0.00,0.00
2017-06-28 00:30:00,2,41330,0,0.00,2,2,0,2,27604,50000,6323,40745,0,0,0,0,0.00,0.00,0.00,0.00
2017-06-28 00:40:00,2,40391,0,0.00,2,2,0,2,17991,50000,11072,45113,0,0,0,0,0.00,0.00,0.00,0.00
2017-06-28 00:50:00,2,35537,0,0.00,2,2,0,2,27845,45969,5758,34584,0,0,0,0,0.00,0.00,0.00,0.00
2017-06-28 01:00:00,2,44885,0,0.00,2,2,0,2,33479,50000,5578,46240,0,0,0,0,0.00,0.00,0.00,0.00
2017-06-28 01:10:00,2,42668,0,0.00,2,2,0,2,33585,50000,6381,42284,0,0,0,0,0.00,0.00,0.00,0.00
2017-06-28 01:20:00,2,42154,0,0.00,2,2,0,2,27245,50000,6567,43466,0,0,0,0,0.00,0.00,0.00,0.00
2017-06-28 01:30:00,2,47056,0,0.00,2,2,0,2,34951,50000,5041,50000,0,0,0,0,0.00,0.00,0.00,0.00
2017-06-28 01:40:00,2,36419,0,0.00,2,2,0,2,22998,50000,9722,36290,0,0,0,0,0.00,0.00,0.00,0.00
2017-06-28 01:50:00,2,39024,0,0.00,2,2,0,2,23963,50000,9677,42958,0,0,0,0,0.00,0.00,0.00,0.00
2017-06-28 02:00:00,2,41183,0,0.00,2,2,0,2,26862,50000,6602,42074,0,0,0,0,0.00,0.00,0.00,0.00
2017-06-28 02:10:00,2,37584,0,0.00,2,2,0,2,22096,50000,8765,36064,0,0,0,0,0.00,0.00,0.00,0.00
2017-06-28 02:20:00,2,40002,0,0.00,0,2,1,2,21218,50000,11245,45006,0,0,0,0,0.00,0.00,0.00,0.00
2017-06-28 02:30:00,2,45421,0,0.00,0,2,1,2,33874,50000,6044,49556,0,0,0,0,0.00,0.00,0.00,0.00
2017-06-28 02:40:00,0,41005,0,0.00,0,0,0,0,29207,50000,7429,42618,0,0,0,0,0.00,0.00,0.00,0.00
2017-06-28 02:50:00,0,41991,0,0.00,0,0,0,0,23019,50000,7680,43922,0,0,0,0,0.00,0.00,0.00,0.00
2017-06-28 03:00:00,0,44203,0,0.00,0,0,0,0,26391,50000,7039,46053,0,0,0,0,0.00,0.00,0.00,0.00
2017-06-28 03:10:00,0,45357,0,0.00,0,0,0,0,31346,50000,5620,47232,0,0,0,0,0.00,0.00,0.00,0.00
2017-06-28 03:20:00,0,44482,0,0.00,0,0,0,0,33450,50000,5203,45963,0,0,0,0,0.00,0.00,0.00,0.00
2017-06-28 03:30:00,0,42816,0,0.00,0,0,0,0,32882,50000,6033,43422,0,0,0,0,0.00,0.00,0.00,0.00
2017-06-28 03:40:00,0,44773,0,0.00,0,0,0,0,38165,50000,4513,45834,0,0,0,0,0.00,0.00,0.00,0.00
2017-06-28 03:50:00,0,47022,0,0.00,0,0,0,0,39965,50000,3290,48016,0,0,0,0,0.00,0.00,0.00,0.00
2017-06-28 04:00:00,0,48199,0,0.00,0,0,0,0,41066,50000,2756,49676,0,0,0,0,0.00,0.00,0.00,0.00
2017-06-28 04:10:00,0,44700,0,0.00,0,0,0,0,25428,50000,7263,46482,0,0,0,0,0.00,0.00,0.00,0.00
2017-06-28 04:20:00,0,48449,0,0.00,0,0,0,0,42100,50000,2471,50000,0,0,0,0,0.00,0.00,0.00,0.00
2017-06-28 04:30:00,0,43859,0,0.00,0,0,0,0,28598,50000,6781,46200,0,0,0,0,0.00,0.00,0.00,0.00
2017-06-28 04:40:00,0,45733,0,0.00,0,0,0,0,33657,50000,5117,47346,0,0,0,0,0.00,0.00,0.00,0.00
2017-06-28 04:50:00,0,48801,0,0.00,0,0,0,0,43671,50000,1917,49776,0,0,0,0,0.00,0.00,0.00,0.00
2017-06-28 05:00:00,0,47869,0,0.00,0,0,0,0,42496,50000,2512,48947,0,0,0,0,0.00,0.00,0.00,0.00
2017-06-28 05:10:00,0,49543,0,0.00,0,0,0,0,47406,50000,925,50000,0,0,0,0,0.00,0.00,0.00,0.00
2017-06-28 05:20:00,0,46341,0,0.00,0,0,0,0,40798,50000,3817,47252,0,0,0,0,0.00,0.00,0.00,0.00
2017-06-28 05:30:00,0,49170,0,0.00,0,0,0,0,45746,50000,1486,50000,0,0,0,0,0.00,0.00,0.00,0.00
2017-06-28 05:40:00,0,48483,0,0.00,0,0,0,0,43723,50000,2123,49261,0,0,0,0,0.00,0.00,0.00,0.00
2017-06-28 05:50:00,0,48536,0,0.00,0,0,0,0,45899,50000,1638,49207,0,0,0,0,0.00,0.00,0.00,0.00
2017-06-28 06:00:00,0,47309,0,0.00,0,0,0,0,37978,50000,3827,50000,0,0,0,0,0.00,0.00,0.00,0.00
2017-06-28 06:10:00,0,47127,0,0.00,0,0,0,0,39659,50000,3901,49496,0,0,0,0,0.00,0.00,0.00,0.00
2017-06-28 06:20:00,0,49228,0,0.00,0,0,0,0,45764,50000,1458,50000,0,0,0,0,0.00,0.00,0.00,0.00
2017-06-28 06:30:00,0,49226,0,0.00,0,0,0,0,42970,50000,2090,50000,0,0,0,0,0.00,0.00,0.00,0.00
2017-06-28 06:40:00,0,49080,0,0.00,0,0,0,0,46275,50000,1431,50000,0,0,0,0,0.00,0.00,0.00,0.00
2017-06-28 06:50:00,0,48827,0,0.00,0,0,0,0,44790,50000,1748,49755,0,0,0,0,0.00,0.00,0.00,0.00
2017-06-28 07:00:00,0,50000,0,0.00,0,0,0,0,50000,50000,0,50000,0,0,0,0,0.00,0.00,0.00,0.00
2017-06-28 07:10:00,0,49929,0,0.00,0,0,0,0,49286,50000,214,50000,0,0,0,0,0.00,0.00,0.00,0.00
2017-06-28 07:20:00,0,49970,0,0.00,0,0,0,0,49701,50000,90,50000,0,0,0,0,0.00,0.00,0.00,0.00
2017-06-28 07:30:00,0,49556,0,0.00,0,0,0,0,46080,50000,1169,50000,0,0,0,0,0.00,0.00,0.00,0.00
2017-06-28 07:40:00,0,46521,0,0.00,0,1,0,0,37842,50000,4409,47835,0,0,0,0,0.00,0.00,0.00,0.00
2017-06-28 07:50:00,0,48784,0,0.00,0,0,0,0,43722,50000,2072,50000,0,0,0,0,0.00,0.00,0.00,0.00
2017-06-28 08:00:00,0,49882,0,0.00,0,0,0,0,48820,50000,354,50000,0,0,0,0,0.00,0.00,0.00,0.00
2017-06-28 08:10:00,0,45640,0,0.00,0,0,0,0,30801,50000,6458,49509,0,0,0,0,0.00,0.00,0.00,0.00
2017-06-28 08:20:00,0,47520,0,0.00,0,0,0,0,39634,50000,3238,49304,0,0,0,0,0.00,0.00,0.00,0.00
2017-06-28 08:30:00,0,49909,0,0.00,0,0,0,0,49091,50000,273,50000,0,0,0,0,0.00,0.00,0.00,0.00
2017-06-28 08:40:00,0,49269,0,0.00,0,0,0,0,46313,50000,1461,50000,0,0,0,0,0.00,0.00,0.00,0.00
2017-06-28 08:50:00,0,49722,0,0.00,0,0,0,0,47220,50000,834,50000,0,0,0,0,0.00,0.00,0.00,0.00
2017-06-28 09:00:00,0,43423,0,0.00,0,0,0,0,24986,50000,8534,48110,0,0,0,0,0.00,0.00,0.00,0.00
2017-06-28 09:10:00,0,50000,0,0.00,0,0,0,0,50000,50000,0,50000,0,0,0,0,0.00,0.00,0.00,0.00
2017-06-28 09:20:00,0,47226,0,0.00,0,0,0,0,39445,50000,3572,49500,0,0,0,0,0.00,0.00,0.00,0.00
2017-06-28 09:30:00,0,49571,0,0.00,0,0,0,0,46804,50000,978,50000,0,0,0,0,0.00,0.00,0.00,0.00
2017-06-28 09:40:00,0,45943,0,0.00,0,0,0,0,36105,50000,5151,49738,0,0,0,0,0.00,0.00,0.00,0.00
2017-06-28 09:50:00,0,46683,0,0.00,0,0,0,0,30636,50000,5497,48124,0,0,0,0,0.00,0.00,0.00,0.00
2017-06-28 10:00:00,0,42477,0,0.00,0,0,0,0,24413,50000,8154,44446,0,0,0,0,0.00,0.00,0.00,0.00
2017-06-28 10:10:00,0,36818,0,0.00,0,0,0,0,18167,50000,11235,38791,0,0,0,0,0.00,0.00,0.00,0.00
2017-06-28 10:20:00,0,43552,0,0.00,0,2,1,0,24323,50000,7911,45862,0,0,0,0,0.00,0.00,0.00,0.00
2017-06-28 10:30:00,0,38800,0,0.00,0,0,0,0,17016,50000,10962,40862,0,0,0,0,0.00,0.00,0.00,0.00
2017-06-28 10:40:00,1,39670,0,0.00,0,2,1,0,20092,49627,8582,40132,0,0,0,0,0.00,0.00,0.00,0.00
2017-06-28 10:50:00,2,49989,0,0.00,2,2,0,2,49894,50000,32,50000,0,0,0,0,0.00,0.00,0.00,0.00
2017-06-28 11:00:00,2,47526,0,0.00,2,2,0,2,38802,50000,3928,50000,0,0,0,0,0.00,0.00,0.00,0.00
2017-06-28 11:10:00,2,49612,0,0.00,2,2,0,2,48461,50000,606,50000,0,0,0,0,0.00,0.00,0.00,0.00
2017-06-28 11:20:00,2,49095,0,0.00,2,2,0,2,45244,50000,1563,50000,0,0,0,0,0.00,0.00,0.00,0.00
2017-06-28 11:30:00,2,49396,0,0.00,2,2,0,2,43963,50000,1811,50000,0,0,0,0,0.00,0.00,0.00,0.00
2017-06-28 11:40:00,2,40126,0,0.00,2,2,0,2,23937,50000,8719,41322,0,0,0,0,0.00,0.00,0.00,0.00
2017-06-28 11:50:00,2,33374,0,0.00,0,2,1,2,25753,49570,8267,29182,0,0,0,0,0.00,0.00,0.00,0.00
2017-06-28 12:00:00,1,42186,0,0.00,0,2,1,1,23847,50000,10590,49432,0,0,0,0,0.00,0.00,0.00,0.00
2017-06-28 12:10:00,2,49999,0,0.00,2,2,0,2,49986,50000,4,50000,0,0,0,0,0.00,0.00,0.00,0.00
2017-06-28 12:20:00,2,49982,0,0.00,2,2,0,2,49819,50000,54,50000,0,0,0,0,0.00,0.00,0.00,0.00
2017-06-28 12:30:00,1,49887,0,0.00,0,2,1,1,48868,50000,340,50000,0,0,0,0,0.00,0.00,0.00,0.00
2017-06-28 12:40:00,1,49513,0,0.00,0,2,1,0,47928,50000,764,50000,0,0,0,0,0.00,0.00,0.00,0.00
2017-06-28 12:50:00,0,49183,0,0.00,0,0,0,0,45634,50000,1401,50000,0,0,0,0,0.00,0.00,0.00,0.00
2017-06-28 13:00:00,0,44475,0,0.00,0,0,0,0,31472,50000,6971,48322,0,0,0,0,0.00,0.00,0.00,0.00
2017-06-28 13:10:00,0,46230,0,0.00,0,0,0,0,37211,50000,4564,48195,0,0,0,0,0.00,0.00,0.00,0.00
2017-06-28 13:20:00,0,49711,0,0.00,0,0,0,0,47113,50000,866,50000,0,0,0,0,0.00,0.00,0.00,0.00
2017-06-28 13:30:00,0,50000,0,0.00,0,0,0,0,50000,50000,0,50000,0,0,0,0,0.00,0.00,0.00,0.00
2017-06-28 13:40:00,0,50000,0,0.00,0,0,0,0,50000,50000,0,50000,0,0,0,0,0.00,0.00,0.00,0.00
2017-06-28 13:50:00,0,50000,0,0.00,0,0,0,0,50000,50000,0,50000,0,0,0,0,0.00,0.00,0.00,0.00
2017-06-28 14:00:00,0,41367,0,0.00,0,0,0,0,11445,50000,14979,50000,0,0,0,0,0.00,0.00,0.00,0.00
2017-06-28 14:10:00,0,50000,0,0.00,0,0,0,0,50000,50000,0,50000,0,0,0,0,0.00,0.00,0.00,0.00
2017-06-28 14:20:00,0,50000,0,0.00,0,0,0,0,50000,50000,0,50000,0,0,0,0,0.00,0.00,0.00,0.00
2017-06-28 14:30:00,0,50000,0,0.00,0,0,0,0,50000,50000,0,50000,0,0,0,0,0.00,0.00,0.00,0.00
2017-06-28 14:40:00,0,50000,0,0.00,0,0,0,0,50000,50000,0,50000,0,0,0,0,0.00,0.00,0.00,0.00
2017-06-28 14:50:00,0,50000,0,0.00,0,0,0,0,50000,50000,0,50000,0,0,0,0,0.00,0.00,0.00,0.00
2017-06-28 15:00:00,0,50000,0,0.00,0,0,0,0,50000,50000,0,50000,0,0,0,0,0.00,0.00,0.00,0.00
2017-06-28 15:10:00,0,50000,0,0.00,0,0,0,0,50000,50000,0,50000,0,0,0,0,0.00,0.00,0.00,0.00
2017-06-28 15:20:00,0,50000,0,0.00,0,0,0,0,50000,50000,0,50000,0,0,0,0,0.00,0.00,0.00,0.00
2017-06-28 15:30:00,1,50000,0,0.00,0,2,1,0,50000,50000,0,50000,0,0,0,0,0.00,0.00,0.00,0.00
2017-06-28 15:40:00,2,50000,0,0.00,2,2,0,2,50000,50000,0,50000,0,0,0,0,0.00,0.00,0.00,0.00
2017-06-28 15:50:00,1,50000,0,0.00,0,2,1,0,50000,50000,0,50000,0,0,0,0,0.00,0.00,0.00,0.00
2017-06-28 16:00:00,0,50000,0,0.00,0,0,0,0,50000,50000,0,50000,0,0,0,0,0.00,0.00,0.00,0.00
2017-06-28 16:10:00,0,50000,0,0.00,0,0,0,0,50000,50000,0,50000,0,0,0,0,0.00,0.00,0.00,0.00
2017-06-28 16:20:00,0,50000,0,0.00,0,2,1,0,50000,50000,0,50000,0,0,0,0,0.00,0.00,0.00,0.00
2017-06-28 16:30:00,0,50000,0,0.00,0,0,0,0,50000,50000,0,50000,0,0,0,0,0.00,0.00,0.00,0.00
2017-06-28 16:40:00,0,50000,0,0.00,0,0,0,0,50000,50000,0,50000,0,0,0,0,0.00,0.00,0.00,0.00
2017-06-28 16:50:00,0,50000,0,0.00,0,0,0,0,50000,50000,0,50000,0,0,0,0,0.00,0.00,0.00,0.00
2017-06-28 17:00:00,0,50000,0,0.00,0,0,0,0,50000,50000,0,50000,0,0,0,0,0.00,0.00,0.00,0.00
2017-06-28 17:10:00,0,50000,0,0.00,0,0,0,0,50000,50000,0,50000,0,0,0,0,0.00,0.00,0.00,0.00
2017-06-28 17:20:00,0,49975,0,0.00,0,0,0,0,49751,50000,75,50000,0,0,0,0,0.00,0.00,0.00,0.00
2017-06-28 17:30:00,0,50000,0,0.00,0,0,0,0,50000,50000,0,50000,0,0,0,0,0.00,0.00,0.00,0.00
2017-06-28 17:40:00,0,49977,0,0.00,0,0,0,0,49773,50000,68,50000,0,0,0,0,0.00,0.00,0.00,0.00
2017-06-28 17:50:00,0,49956,0,0.00,0,0,0,0,49558,50000,133,50000,0,0,0,0,0.00,0.00,0.00,0.00
2017-06-28 18:00:00,0,50000,0,0.00,0,0,0,0,50000,50000,0,50000,0,0,0,0,0.00,0.00,0.00,0.00
2017-06-28 18:10:00,0,50000,0,0.00,0,0,0,0,50000,50000,0,50000,0,0,0,0,0.00,0.00,0.00,0.00
2017-06-28 18:20:00,0,50000,0,0.00,0,0,0,0,50000,50000,0,50000,0,0,0,0,0.00,0.00,0.00,0.00
2017-06-28 18:30:00,0,50000,0,0.00,0,0,0,0,50000,50000,0,50000,0,0,0,0,0.00,0.00,0.00,0.00
2017-06-28 18:40:00,0,49996,0,0.00,0,0,0,0,49959,50000,12,50000,0,0,0,0,0.00,0.00,0.00,0.00
2017-06-28 18:50:00,0,50000,0,0.00,0,0,0,0,50000,50000,0,50000,0,0,0,0,0.00,0.00,0.00,0.00
2017-06-28 19:00:00,0,50000,0,0.00,0,0,0,0,50000,50000,0,50000,0,0,0,0,0.00,0.00,0.00,0.00
2017-06-28 19:10:00,0,50000,0,0.00,0,0,0,0,50000,50000,0,50000,0,0,0,0,0.00,0.00,0.00,0.00
2017-06-28 19:20:00,0,49868,0,0.00,0,0,0,0,48681,50000,396,50000,0,0,0,0,0.00,0.00,0.00,0.00
2017-06-28 19:30:00,0,50000,0,0.00,0,0,0,0,50000,50000,0,50000,0,0,0,0,0.00,0.00,0.00,0.00
2017-06-28 19:40:00,0,49776,0,0.00,0,0,0,0,47760,50000,672,50000,0,0,0,0,0.00,0.00,0.00,0.00
2017-06-28 19:50:00,0,49782,0,0.00,0,0,0,0,48171,50000,547,50000,0,0,0,0,0.00,0.00,0.00,0.00
2017-06-28 20:00:00,0,50000,0,0.00,0,0,0,0,50000,50000,0,50000,0,0,0,0,0.00,0.00,0.00,0.00
2017-06-28 20:10:00,0,49531,0,0.00,0,0,0,0,47625,50000,728,50000,0,0,0,0,0.00,0.00,0.00,0.00
2017-06-28 20:20:00,0,49304,0,0.00,0,0,0,0,43036,50000,2089,50000,0,0,0,0,0.00,0.00,0.00,0.00
2017-06-28 20:30:00,0,48797,0,0.00,0,0,0,0,42552,50000,2275,50000,0,0,0,0,0.00,0.00,0.00,0.00
2017-06-28 20:40:00,0,49045,0,0.00,0,0,0,0,45306,50000,1547,50000,0,0,0,0,0.00,0.00,0.00,0.00
2017-06-28 20:50:00,0,49138,0,0.00,0,0,0,0,43548,50000,1907,50000,0,0,0,0,0.00,0.00,0.00,0.00
2017-06-28 21:00:00,0,49560,0,0.00,0,0,0,0,47473,50000,830,50000,0,0,0,0,0.00,0.00,0.00,0.00
2017-06-28 21:10:00,0,49118,0,0.00,0,0,0,0,45557,50000,1435,49984,0,0,0,0,0.00,0.00,0.00,0.00
2017-06-28 21:20:00,0,45036,0,0.00,0,0,0,0,36961,50000,4825,45721,0,0,0,0,0.00,0.00,0.00,0.00
2017-06-28 21:30:00,0,43036,0,0.00,0,0,0,0,28730,50000,7598,46913,0,0,0,0,0.00,0.00,0.00,0.00
2017-06-28 21:40:00,0,48730,0,0.00,0,0,0,0,44622,50000,1987,50000,0,0,0,0,0.00,0.00,0.00,0.00
2017-06-28 21:50:00,0,48338,0,0.00,0,0,0,0,43295,50000,2300,50000,0,0,0,0,0.00,0.00,0.00,0.00
2017-06-28 22:00:00,0,42351,0,0.00,0,0,0,0,27269,49269,7104,44117,0,0,0,0,0.00,0.00,0.00,0.00
2017-06-28 22:10:00,1,44876,0,0.00,0,2,1,0,36049,50000,5021,46554,0,0,0,0,0.00,0.00,0.00,0.00
2017-06-28 22:20:00,1,43333,0,0.00,0,2,1,2,33983,50000,6263,43404,0,0,0,0,0.00,0.00,0.00,0.00
2017-06-28 22:30:00,1,40083,0,0.00,0,2,1,2,29259,50000,7726,38415,0,0,0,0,0.00,0.00,0.00,0.00
2017-06-28 22:40:00,2,43693,0,0.00,0,2,1,2,36646,50000,4719,41864,0,0,0,0,0.00,0.00,0.00,0.00
2017-06-28 22:50:00,2,41470,0,0.00,2,2,0,2,25910,50000,8457,43910,0,0,0,0,0.00,0.00,0.00,0.00
2017-06-28 23:00:00,2,39638,0,0.00,2,2,0,2,29101,50000,6250,38633,0,0,0,0,0.00,0.00,0.00,0.00
2017-06-28 23:10:00,2,45631,0,0.00,2,2,0,2,36665,50000,4680,46744,0,0,0,0,0.00,0.00,0.00,0.00
2017-06-28 23:20:00,2,41278,0,0.00,2,2,0,2,22113,50000,10591,46058,0,0,0,0,0.00,0.00,0.00,0.00
2017-06-28 23:30:00,2,46172,0,0.00,2,2,0,2,37177,50000,4955,49181,0,0,0,0,0.00,0.00,0.00,0.00
2017-06-28 23:40:00,2,37299,0,0.00,2,2,0,2,19242,50000,8731,36772,0,0,0,0,0.00,0.00,0.00,0.00
2017-06-28 23:50:00,2,44457,0,0.00,2,2,0,2,35814,50000,5003,44420,0,0,0,0,0.00,0.00,0.00,0.00
